This is the latest recevied weather packets stored in our database for station/object LA5PPA-1. If no packets are shown the sender has not sent any weather packets the latest 10 day(s).
| Time | Temp. | Humidity | Pressure | Rain* | Wind** | Luminosity | Snow |
|---|---|---|---|---|---|---|---|
| 1777810321 | 10° C | 44% | 1013.5 hPa | 0 mm | - | - | - |
| 1777810262 | 10° C | 44% | 1013.6 hPa | 0 mm | - | - | - |
| 1777810021 | 10° C | 46% | 1013.6 hPa | 0 mm | - | - | - |
| 1777809721 | 10° C | 48% | 1013.7 hPa | 0 mm | - | - | - |
| 1777809602 | 9.44° C | 50% | 1013.7 hPa | 0 mm | - | - | - |
| 1777809421 | 9.44° C | 46% | 1013.7 hPa | 0 mm | - | - | - |
| 1777809121 | 8.89° C | 43% | 1013.7 hPa | 0 mm | - | - | - |
| 1777808943 | 9.44° C | 41% | 1013.7 hPa | 0 mm | - | - | - |
| 1777808821 | 10° C | 44% | 1013.8 hPa | 0 mm | - | - | - |
| 1777808521 | 10° C | 47% | 1013.7 hPa | 0 mm | - | - | - |
| 1777808282 | 10° C | 48% | 1013.8 hPa | 0 mm | - | - | - |
| 1777808221 | 10° C | 46% | 1013.8 hPa | 0 mm | - | - | - |
| 1777807921 | 9.44° C | 45% | 1013.8 hPa | 0 mm | - | - | - |
| 1777807621 | 9.44° C | 47% | 1013.9 hPa | 0 mm | - | - | - |
| 1777807321 | 8.89° C | 45% | 1013.9 hPa | 0 mm | - | - | - |
| 1777807021 | 8.33° C | 49% | 1013.8 hPa | 0 mm | - | - | - |
| 1777806962 | 8.33° C | 48% | 1013.9 hPa | 0 mm | - | - | - |
| 1777806721 | 8.33° C | 50% | 1013.9 hPa | 0 mm | - | - | - |
| 1777806421 | 8.33° C | 46% | 1013.9 hPa | 0 mm | - | - | - |
| 1777806302 | 8.33° C | 47% | 1014 hPa | 0 mm | - | - | - |
| 1777806121 | 8.33° C | 46% | 1014 hPa | 0 mm | - | - | - |
| 1777805821 | 8.33° C | 46% | 1014 hPa | 0 mm | - | - | - |
| 1777805642 | 8.33° C | 49% | 1014 hPa | 0 mm | - | - | - |
| 1777805521 | 8.33° C | 48% | 1014 hPa | 0 mm | - | - | - |
| 1777805221 | 7.78° C | 50% | 1014.1 hPa | 0 mm | - | - | - |
* Rain latest hour (hover to see other rain measurements)
** Current wind speed in m/s (hover to see current wind gust speed)